グリーソン彗星

C/2003 A2 ( Gleason )

English version
Home page
Updated on April 23, 2005

---------------------------------------------------------------------

・ プロフィール

発見日 2003年1月10日
発見光度 20.0等
発見者 Arianna E. Gleason (Lunar and Planetary Laboratory)

・ 軌道要素

Epoch 2003 Nov. 17.0 TT = JDT 2452960.5
T 2003 Nov. 6.29309 TT                                  MPC
q  11.4264292            (2000.0)            P               Q
z  -0.0006123      Peri.  346.68500     -0.78063901     -0.62206901
 +/-0.0000160      Node   154.54453     +0.58549055     -0.76164096
e   1.0069965      Incl.    8.06132     +0.21864024     -0.18147506

・ 星図

・ 光度変化

        m1 = 3.2 + 5 logΔ + 10.0 log r

---------------------------------------------------------------------

軌道要素はM.P.E.C. 2003-G49に掲載されたものです。
星図は StellaNavigator Ver.2.0 for Windows (アストロアーツ 編著 / アスキー出版局刊) で作成したものです。
光度グラフはComet for Windowsで作成したものです。

---------------------------------------------------------------------

Copyright(C) Seiichi Yoshida (comet@aerith.net). All rights reserved.